Location: Kapla
(46.2483°N, 15.0094°E)
Time: 14:45:27
(UTC+00:00)

USA 186 - Pass Details

Date: 03 March 2021
Orbit: 261 x 429 km, 96.9° (Epoch: 15 April)

Event Time Altitude Azimuth Distance (km) Brightness Sun altitude
Exits shadow 18:28:20 21° 360° (N) 745 3.1 -17.9°
Drops below altitude 10° 18:29:19 10° 355° (N) 1,167 4.2 -18.1°
Sets 18:31:15 0° 351° (N) 2,027 5.5 -18.4°
